Overview Statistics Trail Chart Weather Telemetry Raw packets
 

This is the latest recevied weather packets stored in our database for station/object IN3MWE-10. If no packets are shown the sender has not sent any weather packets the latest 10 day(s).

<< 20 21 22 23 24 25 26 >>
Time Temp. Humidity Pressure Rain* Wind** Luminosity Snow
1788186020 37.22° C 26% 975.9 hPa - - - -
1788185120 37.78° C 25% 976.1 hPa - - - -
1788184220 37.78° C 24% 976.2 hPa - - - -
1788183320 35° C 27% 976.5 hPa - - - -
1788182428 34.44° C 31% 976.7 hPa - - - -
1788181520 33.89° C 31% 976.9 hPa - - - -
1788180619 32.78° C 35% 977.1 hPa - - - -
1788179719 33.33° C 32% 977.1 hPa - - - -
1788178819 32.22° C 34% 977.3 hPa - - - -
1788177919 32.78° C 37% 977.4 hPa - - - -
1788177019 33.89° C 35% 977.6 hPa - - - -
1788176119 32.78° C 39% 977.9 hPa - - - -
1788175219 34.44° C 33% 978 hPa - - - -
1788174319 35.56° C 32% 978.1 hPa - - - -
1788173418 34.44° C 33% 978.3 hPa - - - -
1788172518 36.11° C 32% 978.6 hPa - - - -
1788171618 33.33° C 37% 978.7 hPa - - - -
1788170718 30° C 47% 979.1 hPa - - - -
1788169818 30° C 47% 979.3 hPa - - - -
1788168918 28.89° C 49% 979.6 hPa - - - -
1788168017 30° C 45% 979.8 hPa - - - -
1788167117 31.11° C 42% 980 hPa - - - -
1788166221 30.56° C 42% 980.1 hPa - - - -
1788165317 30.56° C 44% 980.2 hPa - - - -
1788164417 29.44° C 51% 980.4 hPa - - - -

* Rain since midnight (hover to see other rain measurements)
** Current wind speed in m/s (hover to see current wind gust speed)